Hourly Weather Mingachevir

Today, 8 May, Saturday

Time Temperature Precipitation Wind Pressure Humidity
00:00 +16°C° 0 mm 2 mps 754 mmHg 85%
01:00 +16°C° 0 mm 2 mps 754 mmHg 87%
02:00 +15°C° 0 mm 2 mps 754 mmHg 89%
03:00 +15°C° 0 mm 2 mps 754 mmHg 91%
04:00 +15°C° 0 mm 1 mps 755 mmHg 88%
05:00 +15°C° 0 mm 1 mps 755 mmHg 86%
06:00 +16°C° 0 mm 1 mps 755 mmHg 84%
07:00 +17°C° 0 mm 2 mps 755 mmHg 78%
08:00 +19°C° 0 mm 2 mps 755 mmHg 72%
09:00 +20°C° 0 mm 3 mps 755 mmHg 66%
10:00 +21°C° 0 mm 3 mps 755 mmHg 62%
11:00 +22°C° 0 mm 3 mps 754 mmHg 57%
12:00 +25°C° 0 mm 3 mps 753 mmHg 53%
13:00 +25°C° 0 mm 2 mps 753 mmHg 51%
14:00 +26°C° 0 mm 2 mps 752 mmHg 48%
15:00 +26°C° 0 mm 2 mps 752 mmHg 46%
16:00 +26°C° 0 mm 2 mps 752 mmHg 49%
17:00 +26°C° 0 mm 2 mps 751 mmHg 51%
18:00 +25°C° 0 mm 2 mps 751 mmHg 54%
19:00 +24°C° 0 mm 2 mps 751 mmHg 57%
20:00 +23°C° 0 mm 2 mps 752 mmHg 61%
21:00 +20°C° 0 mm 2 mps 752 mmHg 65%
22:00 +19°C° 0 mm 2 mps 752 mmHg 71%
23:00 +18°C° 0 mm 2 mps 752 mmHg 77%

Tomorrow, 9 May, Sunday

Time Temperature Precipitation Wind Pressure Humidity
00:00 +17°C° 0 mm 2 mps 752 mmHg 83%
01:00 +17°C° 0 mm 2 mps 751 mmHg 86%
02:00 +16°C° 0 mm 2 mps 751 mmHg 88%
03:00 +16°C° 0 mm 2 mps 751 mmHg 91%
04:00 +16°C° 0 mm 1 mps 751 mmHg 90%
05:00 +16°C° 0 mm 1 mps 751 mmHg 89%
06:00 +16°C° 0 mm 1 mps 751 mmHg 88%
07:00 +19°C° 0 mm 1 mps 750 mmHg 81%
08:00 +20°C° 0 mm 1 mps 750 mmHg 74%
09:00 +22°C° 0 mm 1 mps 750 mmHg 67%
10:00 +23°C° 0 mm 1 mps 749 mmHg 62%
11:00 +25°C° 0 mm 1 mps 748 mmHg 57%
12:00 +26°C° 0 mm 2 mps 748 mmHg 52%
13:00 +27°C° 0 mm 2 mps 747 mmHg 50%
14:00 +27°C° 0 mm 3 mps 746 mmHg 49%
15:00 +28°C° 0 mm 4 mps 745 mmHg 47%
16:00 +27°C° 0.4 mm 5 mps 746 mmHg 54%
17:00 +24°C° 0.4 mm 6 mps 746 mmHg 60%
18:00 +23°C° 0.4 mm 8 mps 747 mmHg 67%
19:00 +21°C° 0.9 mm 9 mps 747 mmHg 70%
20:00 +18°C° 0.9 mm 10 mps 748 mmHg 73%
21:00 +15°C° 0.9 mm 12 mps 749 mmHg 76%
22:00 +14°C° 0.7 mm 11 mps 750 mmHg 74%
23:00 +14°C° 0.7 mm 11 mps 750 mmHg 72%

Day after tomorrow, 10 May, Monday

Time Temperature Precipitation Wind Pressure Humidity
00:00 +14°C° 0.7 mm 10 mps 750 mmHg 69%
01:00 +13°C° 0.1 mm 10 mps 750 mmHg 69%
02:00 +13°C° 0.1 mm 10 mps 750 mmHg 68%
03:00 +13°C° 0.1 mm 9 mps 750 mmHg 67%
04:00 +13°C° 0.3 mm 10 mps 751 mmHg 66%
05:00 +12°C° 0.3 mm 10 mps 751 mmHg 66%
06:00 +12°C° 0.3 mm 10 mps 752 mmHg 65%
07:00 +12°C° 0.1 mm 10 mps 752 mmHg 63%
08:00 +12°C° 0.1 mm 10 mps 753 mmHg 61%
09:00 +12°C° 0.1 mm 10 mps 754 mmHg 59%
10:00 +12°C° 0.1 mm 9 mps 754 mmHg 58%
11:00 +13°C° 0.1 mm 8 mps 754 mmHg 56%
12:00 +14°C° 0.1 mm 7 mps 754 mmHg 55%
13:00 +15°C° 0 mm 6 mps 754 mmHg 54%
14:00 +15°C° 0 mm 5 mps 754 mmHg 53%
15:00 +17°C° 0 mm 3 mps 754 mmHg 52%
16:00 +16°C° 0 mm 3 mps 754 mmHg 57%
17:00 +14°C° 0 mm 3 mps 755 mmHg 62%
18:00 +14°C° 0 mm 3 mps 755 mmHg 67%
19:00 +13°C° 0 mm 3 mps 755 mmHg 69%
20:00 +13°C° 0 mm 3 mps 756 mmHg 71%
21:00 +12°C° 0 mm 3 mps 756 mmHg 73%
22:00 +12°C° 0 mm 3 mps 756 mmHg 75%
23:00 +11°C° 0 mm 3 mps 756 mmHg 76%

11 May, Tuesday

Time Temperature Precipitation Wind Pressure Humidity
00:00 +12°C° 0 mm 2 mps 756 mmHg 78%
01:00 +12°C° 0 mm 2 mps 756 mmHg 78%
02:00 +12°C° 0 mm 2 mps 756 mmHg 79%
03:00 +10°C° 0 mm 2 mps 756 mmHg 80%
04:00 +12°C° 0 mm 1 mps 756 mmHg 80%
05:00 +12°C° 0 mm 1 mps 756 mmHg 79%
06:00 +12°C° 0 mm 1 mps 757 mmHg 78%
07:00 +13°C° 0 mm 1 mps 756 mmHg 75%
08:00 +13°C° 0 mm 2 mps 756 mmHg 72%
09:00 +13°C° 0 mm 3 mps 756 mmHg 68%
10:00 +14°C° 0 mm 3 mps 756 mmHg 64%
11:00 +16°C° 0 mm 3 mps 755 mmHg 59%
12:00 +17°C° 0 mm 3 mps 755 mmHg 54%
13:00 +18°C° 0 mm 2 mps 754 mmHg 51%
14:00 +19°C° 0 mm 2 mps 754 mmHg 49%
15:00 +19°C° 0 mm 2 mps 753 mmHg 46%
16:00 +19°C° 0 mm 2 mps 753 mmHg 47%
17:00 +20°C° 0 mm 1 mps 753 mmHg 49%
18:00 +20°C° 0 mm 1 mps 753 mmHg 51%
19:00 +19°C° 0 mm 1 mps 753 mmHg 55%
20:00 +18°C° 0 mm 1 mps 754 mmHg 59%
21:00 +16°C° 0 mm 1 mps 754 mmHg 62%
22:00 +15°C° 0 mm 1 mps 754 mmHg 66%
23:00 +15°C° 0 mm 1 mps 754 mmHg 70%

12 May, Wednesday

Time Temperature Precipitation Wind Pressure Humidity
00:00 +14°C° 0 mm 1 mps 753 mmHg 73%
01:00 +14°C° 0 mm 1 mps 753 mmHg 77%
02:00 +13°C° 0 mm 1 mps 753 mmHg 81%
03:00 +13°C° 0 mm 1 mps 753 mmHg 85%
04:00 +12°C° 0 mm 0 mps 754 mmHg 83%
05:00 +13°C° 0 mm 0 mps 754 mmHg 81%
06:00 +13°C° 0 mm 0 mps 754 mmHg 79%
07:00 +16°C° 0 mm 1 mps 753 mmHg 73%
08:00 +18°C° 0 mm 1 mps 753 mmHg 67%
09:00 +19°C° 0 mm 1 mps 753 mmHg 62%
10:00 +21°C° 0 mm 1 mps 753 mmHg 58%
11:00 +21°C° 0 mm 2 mps 752 mmHg 54%
12:00 +23°C° 0 mm 2 mps 752 mmHg 50%
13:00 +24°C° 0 mm 2 mps 751 mmHg 48%
14:00 +24°C° 0 mm 2 mps 751 mmHg 47%
15:00 +25°C° 0 mm 2 mps 750 mmHg 45%
16:00 +25°C° 0 mm 2 mps 750 mmHg 48%
17:00 +24°C° 0 mm 2 mps 750 mmHg 51%
18:00 +24°C° 0 mm 3 mps 750 mmHg 54%
19:00 +23°C° 0.1 mm 2 mps 751 mmHg 59%
20:00 +21°C° 0.1 mm 2 mps 751 mmHg 64%
21:00 +20°C° 0.1 mm 2 mps 751 mmHg 68%
22:00 +20°C° 0 mm 2 mps 751 mmHg 70%
23:00 +20°C° 0 mm 1 mps 751 mmHg 72%

13 May, Thursday

Time Temperature Precipitation Wind Pressure Humidity
00:00 +20°C° 0 mm 1 mps 751 mmHg 74%
01:00 +19°C° 0 mm 1 mps 751 mmHg 76%
02:00 +19°C° 0 mm 1 mps 751 mmHg 78%
03:00 +18°C° 0 mm 1 mps 751 mmHg 80%
04:00 +19°C° 0 mm 1 mps 751 mmHg 78%
05:00 +19°C° 0 mm 1 mps 751 mmHg 76%
06:00 +19°C° 0 mm 1 mps 751 mmHg 74%
07:00 +21°C° 0 mm 1 mps 751 mmHg 69%
08:00 +22°C° 0 mm 1 mps 752 mmHg 63%
09:00 +24°C° 0 mm 1 mps 752 mmHg 57%
10:00 +25°C° 0 mm 1 mps 751 mmHg 54%
11:00 +26°C° 0 mm 2 mps 751 mmHg 50%
12:00 +27°C° 0 mm 2 mps 751 mmHg 47%
13:00 +28°C° 0 mm 2 mps 750 mmHg 45%
14:00 +29°C° 0 mm 2 mps 750 mmHg 44%
15:00 +29°C° 0 mm 2 mps 750 mmHg 42%
16:00 +28°C° 0.1 mm 2 mps 750 mmHg 46%
17:00 +28°C° 0.1 mm 2 mps 750 mmHg 49%
18:00 +27°C° 0.1 mm 2 mps 750 mmHg 52%
19:00 +26°C° 0 mm 3 mps 750 mmHg 55%
20:00 +25°C° 0 mm 3 mps 751 mmHg 58%
21:00 +22°C° 0 mm 4 mps 751 mmHg 61%
22:00 +21°C° 0 mm 3 mps 752 mmHg 66%
23:00 +20°C° 0 mm 3 mps 752 mmHg 72%
Show more

We Need Your Consent

Meteoprog and our Service Providers may store and access personal data such as cookies, device identifiers or other similar technologies on your device and process such data to personalise content and ads, as well as provide social media features and to analyse the traffic.

  • Store and/or access information on your device

    Cookies, device identifiers or other information can be stored or accessed on your device for the purposes indicated above.

  • Personalised ads and content, ad and content measurement, audience insights, and products development

    Ads and content can be personalised based on a profile. More data can be added to better personalise ads and content. Ad and content performance can be measured. Insights about the audience who saw the ads and content can be derived. Such data can be used to develop or improve user’s experience, systems and software.

By clicking ‘I Agree’ you will allow the use of indicated cookies, device identifiers, web beacons or other similar technologies. Your settings can be changed in the browser on your device.

For certain purposes, legitimate interests may be relied on, rather than consent. You can read more about this in our Privacy and Cookie Policy.